星链-5597 (STARLINK-5597 )

导读 | 豆包AI

STARLINK-5597是美国SpaceX公司星链(Starlink)卫星互联网星座的一员,于2023年1月31日发射。星链计划旨在通过近地轨道卫星星座,为全球偏远地区提供高速低延迟宽带互联网服务。该卫星属于星链扩容批次,运行于近地轨道,配备氪离子推进系统与相控阵天线,支持自主轨道调整和避碰,服务全球网络覆盖,助力星链实现全球互联目标。

Basic Information
目录编号:
55403
目录名称:
STARLINK-5597
国际标识:
2023-014N
轨道中心:
EARTH
卫星名称:
星链-5597
卫星全名:
星链-5597 (STARLINK-5597 )
卫星状态:
在轨 (已飞行1185 天)
发射日期:
2023-01-31 UTC
国别 :
美国 (US)
星等 :
--
Orbit Information
数据来源 国际轨道数据 AOE轨道数据
星历时间 2026-04-30T05:08:12+0800
16小时前
查看轨道信息
2026-04-29T08:00:00+0800
1天前
查看轨道信息
半长轴 6950.119km 6950.198km
偏心率 0.000275 0.0002752
轨道倾角 69.998° 69.996°
近地点辐角 268.219° 271.711°
升交点赤经 295.372° 297.591°
平近点角 91.866° 19.119°
近地点 570.07km 570.148km
远地点 573.894km 573.974km
周期 96.105分钟 96.107分钟
每日圈数 14.983542 14.983284
Detailed Information
固有亮度:
5
最大亮度:
2.5
卫星平台:
Starlink v1.5
覆盖范围:
全球
运营商:
太空探索技术公司
运营商所在国:
美国
制造商(研发单位):
太空探索技术公司
制造商所在国:
美国
使用方式:
暂无
Satellite Introduction
星链(Starlink)计划是由太空探索技术公司(SpaceX)提出的一个巨型低轨卫星互联网星座项目,计划在2019年至2024年间在太空搭建由约1.2万颗卫星组成的“星链”网络,其中1584颗将部署在地球上空550千米处的近地轨道,并从2020年开始工作。该卫星仍在工作。
2D Orbit Map
3D Orbit Map
Orbit Altitude Analysis Chart
Orbit Inclination Analysis Chart
Orbit Comprehensive Analysis Chart
View Comprehensive Chart